Location: Alincthun
(50.7310°N, 1.8022°E)
Time: 11:23:30
(UTC+00:00)

NOAA 6 - Pass Details

Date: 17 February 2020
Orbit: 771 x 788 km, 98.7° (Epoch: 08 April)

Event Time Altitude Azimuth Distance (km) Brightness Sun altitude
Rises 05:34:07 0° 16° (NNE) 3,294 7.5 -14.5°
Reaches altitude 10° 05:36:28 10° 19° (NNE) 2,359 6.7 -14.2°
Maximum altitude 05:41:40 69° 103° (ESE) 841 4.4 -13.4°
Drops below altitude 10° 05:46:48 10° 187° (S) 2,332 6.5 -12.5°
Sets 05:49:07 0° 190° (S) 3,253 7.2 -12.2°
